Voltar ao catálogo

STARLINK-35066

AtivoComunicaçõesSSO
NORAD 65386·PAYLOAD·🇺🇸 United States

Lançado Aug 30, 2025 de Vandenberg Space Force Base

Loading…

Próximas Passagens (próximas 24 horas)

TLE

AtualizadoSource: CelesTrak SupGP

Época: Sep 15, 2026, 03:46 UTC

1 65386C 25191H   26258.15743056  .00003057  00000+0  94875-4 0  2589
2 65386  97.2845 124.2986 0002040  95.0943 215.7290 15.33443675    11

Acompanhe STARLINK-35066 em tempo real com AllMySat

Download on the App Store